[[{"header":{"parameterUnit":"m.s-1","parameterCategory":1,"la1":30.2991,"la2":30.254,"lo1":-89.0895,"lo2":-89.0444,"dy":0.0017,"dx":0.0017,"nx":28,"ny":28,"refTime":"2023-10-03T09:00:00:Z","depth":0,"parameterNumber":2,"parameterNumberName":"U-component_of_WINDS"},"data":[0,0,0,0,0,0,0,0,0,0,0,0,0,0,0,0,0,0,0,0,0,0,0,0,0,0,0,0,0,0,0,0,0,0,0,0,0,0,0,0,0,0,0,0,0,0,0,0,0,0,0,0,0,0,0,0,0,0,-3.0067,-3.0067,0,-3.008,-3.008,-3.0081,-2.998,-2.9977,-2.9974,-2.9971,-2.9985,-2.9988,-2.9991,0,0,0,0,0,0,0,0,0,0,0,0,0,-2.9953,-2.9956,-3.0067,-3.0067,-3.0067,-3.008,-3.0081,-3.0081,-2.998,-2.9977,-2.9973,-2.997,-2.9984,-2.9988,-2.9991,0,0,0,0,0,0,0,0,0,0,0,0,0,-2.9988,-2.9956,-3.0067,-3.0019,-3.0014,-3.008,-3.0081,-3.0081,-2.9981,-2.9977,-2.9973,-2.9969,-2.9983,-2.9987,-2.9992,-3.0104,0,0,-3.0005,-3.0007,0,0,0,0,0,0,0,0,-2.9986,-2.9992,-3.0026,-3.0022,-3.0017,-3.0024,-3.0045,-3.0089,-2.9982,-2.9994,-2.9971,-2.9966,-3.0001,-3.0004,-3.0016,-3.0105,-3.0105,-3.0006,-3.0008,-3.001,-3.0012,0,0,0,0,0,0,0,-2.9984,-2.9991,-3.0072,-3.0026,-3.0021,-2.9996,-2.9996,-3.0053,-3.0021,-2.9992,-2.9985,-2.9988,-2.9998,-3.0012,-3.0015,-3.0106,-3.0006,-3.001,-3.0012,-3.0014,-3.0286,-3.0291,0,0,0,0,0,0,-2.9988,-2.999,-3.0072,-3.0072,-2.9991,-3.0002,-3.0002,-3.0026,-3.002,-3.0015,-2.9992,-2.9983,-3.0006,-3.001,-3.0016,-3.0146,-3.001,-3.0015,-3.0017,-3.0282,-3.0287,-3.0292,0,0,0,0,0,0,-2.9986,-2.9996,-3.0071,-3.0029,-3.0037,-3.0008,-3.0036,-3.0029,-3.0042,-3.002,-3.0013,-3.0011,-3.0003,-3.0009,-3.0083,-3.0145,-3.0017,-3.0021,-3.0277,-3.0284,-3.029,-3.0409,0,0,0,0,0,0,-2.9983,-2.9996,-3.0039,-3.0031,-3.0039,-3.0139,-3.004,-3.0032,-3.005,-3.0039,-3.0037,-3.0032,-3.0,-3.0077,-3.0087,-3.0149,-3.0024,-3.0271,-3.028,-3.0288,-3.0399,-3.0419,-3.0436,0,0,0,0,0,-2.998,-3.0072,-3.0042,-3.0052,-3.0092,-3.0142,-3.0147,-3.0109,-3.0056,-3.0098,-3.0084,-3.0032,-3.0137,-3.0085,-3.0096,-3.016,-3.0267,-3.0277,-3.0287,-3.0391,-3.0415,-3.0435,0,0,0,0,0,0,-3.0088,-3.007,-3.0036,-3.0129,-3.0138,-3.0125,-3.0178,-3.0136,-3.016,-3.0149,-3.01,-3.01,-3.0182,-3.0178,-3.0121,-3.0268,-3.0192,-3.0205,-3.0268,-3.029,-3.0308,-3.0307,-3.0028,0,0,0,0,0,-3.0123,-3.0165,-3.0147,-3.0231,-3.0237,-3.0207,-3.0227,-3.0197,-3.0204,-3.0208,-3.0198,-3.0208,-3.0242,-3.0266,-3.0297,-3.0399,-3.0396,-3.0448,-3.0466,-3.0482,-3.0493,-3.0546,-3.0569,-3.0326,-3.0326,-3.0326,0,0,-3.0195,-3.019,-3.022,-3.0252,-3.0256,-3.03,-3.0211,-3.0262,-3.0294,-3.0215,-3.0284,-3.0278,-3.0284,-3.0372,-3.0411,-3.0372,-3.056,-3.0495,-3.0507,-3.051,-3.0559,-3.0582,-3.0602,-3.0333,-3.0332,-3.0331,0,0,-3.0349,-3.035,-3.042,-3.0425,-3.0431,-3.041,-3.0427,-3.0421,-3.0414,-3.0482,-3.0423,-3.0461,-3.0523,-3.0529,-3.0541,-3.0698,-3.0651,-3.0709,-3.0805,-3.0857,-3.0876,-3.0892,-3.0948,-3.0968,-3.0721,-3.0721,-3.0722,0,-3.0438,-3.0503,-3.046,-3.0516,-3.0531,-3.0462,-3.0531,-3.0538,-3.0555,-3.0567,-3.0524,-3.0598,-3.0598,-3.0686,-3.0725,-3.0737,-3.0754,-3.0709,-3.0877,-3.0893,-3.0908,-3.096,-3.0981,-3.0728,-3.0728,-3.0727,-3.0726,0,-3.0611,-3.0658,-3.0713,-3.073,-3.0752,-3.0814,-3.0781,-3.0808,-3.0776,-3.076,-3.083,-3.0827,-3.0856,-3.0875,-3.0844,-3.0959,-3.0935,-3.0885,-3.0807,-3.0939,-3.0987,-3.1006,-3.0738,-3.0736,-3.0734,-3.0732,0,0,-3.0834,-3.0827,-3.0848,-3.0855,-3.0857,-3.0891,-3.095,-3.0978,-3.1002,-3.1016,-3.1064,-3.1117,-3.1071,-3.1084,-3.1053,-3.1099,-3.1223,-3.1043,-3.1043,-3.1076,-3.1348,-3.1385,-3.1409,-3.1192,-3.1196,-3.1199,-3.1347,0,-3.0984,-3.1084,-3.1047,-3.115,-3.1191,-3.1126,-3.1177,-3.1184,-3.117,-3.1203,-3.1188,-3.1227,-3.1163,-3.1171,-3.1213,-3.1199,-3.1277,-3.1188,-3.1236,-3.1238,-3.1235,-3.1434,-3.1474,-3.1614,-3.1366,-3.1369,-3.1372,0,-3.1172,-3.1193,-3.13,-3.1294,-3.131,-3.1356,-3.1379,-3.1412,-3.1418,-3.1405,-3.142,-3.1379,-3.1436,-3.1359,-3.1437,-3.1377,-3.1394,-3.1391,-3.1395,-3.1397,-3.1312,-3.1441,-3.1658,-3.1679,-3.1401,-3.1399,-3.1396,0,-3.1322,-3.1378,-3.1448,-3.1456,-3.1451,-3.1486,-3.1485,-3.1487,-3.1506,-3.1526,-3.1538,-3.1564,-3.1578,-3.16,-3.1567,-3.1514,-3.1649,-3.157,-3.1639,-3.164,-3.167,-3.1669,-3.1892,-3.1683,-3.1683,-3.1682,-3.1682,0,-3.1493,-3.1561,-3.1516,-3.1559,-3.1633,-3.159,-3.1664,-3.1657,-3.1659,-3.1699,-3.1645,-3.1684,-3.1639,-3.1674,-3.1649,-3.1716,-3.1723,-3.1714,-3.1706,-3.1718,-3.172,-3.1729,-3.1718,-3.1688,-3.1687,-3.1686,-3.1685,0,-3.1674,-3.1646,-3.1719,-3.1708,-3.1707,-3.1762,-3.1753,-3.1792,-3.1775,-3.1827,-3.1837,-3.181,-3.1848,-3.1818,-3.1855,-3.1838,-3.1928,-3.1907,-3.1926,-3.192,-3.1991,-3.1984,-3.2227,-3.2256,-3.203,-3.2032,-3.2034,0,-3.1784,-3.1834,-3.1829,-3.1853,-3.1856,-3.1894,-3.1913,-3.1873,-3.1895,-3.1906,-3.1944,-3.1977,-3.2002,-3.2066,-3.205,-3.2078,-3.2057,-3.214,-3.206,-3.2071,-3.2057,-3.2054,-3.2059,-3.2156,-3.2158,-3.2161,-3.2162,0,-3.1983,-3.1966,-3.1996,-3.2022,-3.2046,-3.2064,-3.2078,-3.21,-3.2059,-3.2087,-3.2125,-3.2144,-3.2182,-3.2216,-3.2239,-3.2237,-3.2194,-3.2188,-3.2205,-3.2218,-3.2226,-3.2222,-3.1969,-3.2182,-3.218,-3.2179,-3.2178,-3.2177,-3.2131,-3.2172,-3.2175,-3.221,-3.2216,-3.223,-3.2266,-3.2254,-3.2285,-3.2313,-3.2287,-3.2333,-3.2337,-3.2363,-3.2368,-3.2403,-3.2368,-3.2394,-3.24,-3.2407,-3.2417,-3.2222,-3.2407,-3.2407,-3.2406,-3.2405,-3.2405,0,-3.2326,-3.2324,-3.2357,-3.2377,-3.2405,-3.2361,-3.2374,-3.24,-3.2441,-3.2448,-3.2474,-3.2518,-3.255,-3.2537,-3.2565,-3.2596,-3.2576,-3.2605,-3.2601,-3.2602,-3.2447,-3.2428,-3.262,-3.262,-3.262,-3.262,-3.262,-3.262,-3.243,-3.2498,-3.2482,-3.2552,-3.255,-3.2595,-3.2606,-3.2618,-3.2624,-3.2676,-3.2702,-3.2693,-3.2692,-3.272,-3.2748,-3.2743,-3.2755,-3.2791,-3.2779,-3.2634,-3.2613,-3.2593,-3.2575,-3.2794,-3.2795,-3.2931,-3.2932,-3.2933]},{"header":{"parameterUnit":"m.s-1","parameterCategory":1,"la1":30.2991,"la2":30.254,"lo1":-89.0895,"lo2":-89.0444,"dy":0.0017,"dx":0.0017,"nx":28,"ny":28,"refTime":"2023-10-03T09:00:00:Z","depth":0,"parameterNumber":3,"parameterNumberName":"V-component_of_WINDS"},"data":[0,0,0,0,0,0,0,0,0,0,0,0,0,0,0,0,0,0,0,0,0,0,0,0,0,0,0,0,0,0,0,0,0,0,0,0,0,0,0,0,0,0,0,0,0,0,0,0,0,0,0,0,0,0,0,0,0,0,0.3945,0.3943,0,0.3777,0.3775,0.3773,0.3649,0.3648,0.3647,0.3646,0.3468,0.3465,0.3461,0,0,0,0,0,0,0,0,0,0,0,0,0,0.4155,0.4152,0.3945,0.3943,0.3941,0.3777,0.3775,0.3773,0.3649,0.3648,0.3646,0.3645,0.3469,0.3465,0.3461,0,0,0,0,0,0,0,0,0,0,0,0,0,0.4033,0.4151,0.3946,0.386,0.385,0.3778,0.3775,0.3772,0.3649,0.3648,0.3646,0.3645,0.3471,0.3466,0.346,0.3458,0,0,0.3443,0.344,0,0,0,0,0,0,0,0,0.404,0.4026,0.3875,0.3866,0.3855,0.3732,0.3784,0.3666,0.365,0.3726,0.3646,0.3644,0.3557,0.3544,0.3516,0.3449,0.3442,0.3442,0.3439,0.3437,0.3435,0,0,0,0,0,0,0,0.4049,0.4032,0.3878,0.3873,0.3861,0.3828,0.3809,0.3761,0.3652,0.3719,0.3709,0.3691,0.3551,0.3522,0.3511,0.3439,0.3443,0.3438,0.3434,0.3432,0.3362,0.3363,0,0,0,0,0,0,0.4071,0.404,0.3884,0.3873,0.3946,0.3826,0.3804,0.3773,0.3652,0.3633,0.3693,0.3686,0.3532,0.3518,0.3504,0.3493,0.3437,0.3431,0.3428,0.336,0.3362,0.3364,0,0,0,0,0,0,0.4076,0.4059,0.3891,0.3954,0.393,0.3824,0.379,0.3771,0.3741,0.3633,0.3612,0.3683,0.353,0.3512,0.347,0.3485,0.3429,0.3424,0.3358,0.3361,0.3363,0.3472,0,0,0,0,0,0,0.4083,0.4061,0.406,0.3955,0.3927,0.3861,0.3791,0.3769,0.3732,0.3722,0.3618,0.3599,0.3528,0.348,0.3465,0.3477,0.3419,0.3356,0.3359,0.3362,0.3467,0.3478,0.3487,0,0,0,0,0,0.4091,0.4096,0.4061,0.4043,0.3924,0.3863,0.3846,0.3765,0.3734,0.3732,0.3662,0.3603,0.3487,0.3476,0.3459,0.3469,0.3355,0.3359,0.3362,0.3462,0.3476,0.3487,0,0,0,0,0,0,0.4204,0.4081,0.404,0.4012,0.3949,0.3842,0.3836,0.3782,0.3725,0.3718,0.3618,0.3595,0.3564,0.3512,0.3503,0.3461,0.3413,0.3413,0.3496,0.3508,0.3518,0.353,0.3415,0,0,0,0,0,0.4226,0.4188,0.4082,0.4067,0.4038,0.3943,0.3913,0.3856,0.3786,0.3758,0.3685,0.3618,0.3566,0.3534,0.348,0.3459,0.3434,0.3457,0.3468,0.3477,0.3478,0.3462,0.3471,0.3375,0.3374,0.3374,0,0,0.427,0.4198,0.418,0.4088,0.4032,0.3994,0.3921,0.3883,0.3853,0.3751,0.3708,0.3653,0.3571,0.354,0.3522,0.3496,0.3499,0.3481,0.3489,0.3485,0.3467,0.3476,0.3484,0.3377,0.3376,0.3376,0,0,0.4331,0.4274,0.4255,0.4202,0.4119,0.4056,0.4052,0.3953,0.3913,0.3869,0.3792,0.3754,0.3667,0.3612,0.3573,0.3615,0.3558,0.36,0.3654,0.364,0.3648,0.3654,0.3669,0.3675,0.3602,0.3602,0.3602,0,0.4396,0.4336,0.4252,0.4219,0.4181,0.409,0.407,0.4021,0.3925,0.39,0.3872,0.3762,0.37,0.3655,0.3666,0.3637,0.3628,0.3611,0.3654,0.3659,0.3664,0.3677,0.3682,0.3607,0.3607,0.3606,0.3606,0,0.442,0.438,0.4375,0.4287,0.4248,0.4222,0.4132,0.4103,0.405,0.399,0.3945,0.3869,0.3798,0.3783,0.373,0.3731,0.3717,0.3673,0.3623,0.368,0.369,0.3695,0.3616,0.3614,0.3612,0.361,0,0,0.4546,0.4413,0.4413,0.4372,0.4275,0.4241,0.4211,0.4144,0.412,0.4057,0.4028,0.3958,0.3917,0.3873,0.3813,0.3801,0.3839,0.3758,0.3754,0.3775,0.3834,0.3868,0.3875,0.3801,0.3802,0.3802,0.3841,0,0.4592,0.4534,0.4458,0.4425,0.4387,0.43,0.4273,0.4211,0.4154,0.4112,0.4048,0.4,0.3949,0.3922,0.3907,0.3838,0.385,0.3834,0.3772,0.3771,0.3795,0.388,0.3915,0.3955,0.3845,0.3845,0.3846,0,0.4637,0.4581,0.4545,0.4452,0.4433,0.4411,0.4343,0.4305,0.4231,0.4191,0.4143,0.4079,0.4041,0.3998,0.3944,0.3935,0.3905,0.3868,0.3867,0.3858,0.3811,0.3872,0.3966,0.3972,0.3851,0.3851,0.385,0,0.4732,0.4647,0.4615,0.4583,0.4473,0.446,0.4413,0.4339,0.4304,0.4244,0.422,0.4157,0.4122,0.4074,0.3995,0.3971,0.3949,0.3899,0.3913,0.3916,0.3912,0.3913,0.4002,0.3894,0.3894,0.3894,0.3894,0,0.479,0.4772,0.4657,0.4637,0.4613,0.4526,0.4504,0.4449,0.4384,0.4351,0.4272,0.4242,0.4139,0.4097,0.4034,0.3999,0.3984,0.3949,0.3933,0.3956,0.396,0.3934,0.3929,0.3896,0.3895,0.3895,0.3895,0,0.4892,0.4815,0.4774,0.4675,0.4649,0.4636,0.455,0.4527,0.4467,0.4426,0.4411,0.4315,0.4262,0.4178,0.4099,0.4057,0.4032,0.4005,0.4058,0.4048,0.4067,0.4066,0.414,0.4146,0.4037,0.4038,0.4039,0,0.4934,0.4918,0.4818,0.4792,0.4749,0.4706,0.4671,0.4584,0.455,0.4466,0.4453,0.4394,0.4342,0.426,0.4182,0.4122,0.4092,0.4123,0.4082,0.4106,0.4092,0.4094,0.4091,0.4132,0.4133,0.4135,0.4136,0,0.5017,0.498,0.4933,0.4872,0.4833,0.4781,0.4724,0.4706,0.4607,0.4573,0.4518,0.4478,0.4399,0.4341,0.427,0.422,0.4161,0.415,0.4149,0.4173,0.4204,0.4187,0.4083,0.4148,0.4147,0.4146,0.4145,0.4145,0.5089,0.5071,0.4999,0.4949,0.4898,0.4848,0.4821,0.4759,0.4712,0.4642,0.4594,0.4542,0.4469,0.4368,0.4322,0.4279,0.4253,0.4253,0.4253,0.4254,0.4263,0.4212,0.4266,0.4265,0.4265,0.4264,0.4264,0,0.5167,0.5117,0.5072,0.4997,0.4958,0.4909,0.4844,0.4814,0.4771,0.4709,0.466,0.4597,0.4541,0.446,0.4397,0.4379,0.435,0.4365,0.4365,0.4355,0.429,0.4296,0.4389,0.4389,0.4389,0.4389,0.4389,0.4389,0.5204,0.5171,0.5125,0.5066,0.5015,0.4966,0.4933,0.4886,0.4836,0.4771,0.4724,0.4673,0.4602,0.4534,0.448,0.4457,0.4438,0.4461,0.443,0.4371,0.4359,0.4348,0.4353,0.4458,0.4458,0.4498,0.4499,0.4499]}]]